Brookings, SD

5:15 AM CDT on September 18, 2019 (GMT -0500)
Brookings Municipal

Weather History for KBKX - August, 2019

Change the Weather History Date:

Wednesday, August 21, 2019

  Actual Average Record
Temperature  
Mean Temperature 66 °F -  
Max Temperature 75 °F 77 °F 89 °F (2010)
Min Temperature 59 °F 56 °F 35 °F (2004)
Cooling Degree Days 1    
Growing Degree Days 16 (Base 50)    
Moisture  
Dew Point 56 °F    
Average Humidity 72    
Maximum Humidity 93    
Minimum Humidity 51    
Precipitation  
Precipitation 0.00 in - - ()
Sea Level Pressure  
Sea Level Pressure 30.13 in    
Wind  
Wind Speed 5 mph (North)    
Max Wind Speed 10 mph    
Max Gust Speed -    
Visibility 10 miles    
Events      
Averages and records for this station are not official NWS values.
T = Trace of Precipitation, MM = Missing Value Source: NWS Daily Summary

Daily Weather History Graph

Daily Weather History Graph

Search for Another Location

Airport or City:

Astronomy

Aug. 21, 2019 Rise Set
Actual Time 6:37 AM CDT 8:22 PM CDT
Civil Twilight 6:06 AM CDT 8:53 PM CDT
Nautical Twilight 5:28 AM CDT 9:31 PM CDT
Astronomical Twilight 4:47 AM CDT 10:11 PM CDT
Moon 11:27 PM CDT (8/21) 12:26 PM CDT (8/21)
Length of Visible Light 14h 47m
Length of Day
13h 45m
Waning Gibbous, 69% of the Moon is Illuminated
Aug 21
Waning Gibbous
Aug 23
Last Quarter
Aug 30
New
Sep 5
First Quarter
Sep 13
Full

Hourly Weather History & Observations

Time (CDT) Temp. Dew Point Humidity Pressure Visibility Wind Dir Wind Speed Gust Speed Precip Events Conditions
12:56 AM 63.0 °F 60.1 °F 90% 30.14 in 10.0 mi North 3.5 mph - N/A   Clear
1:56 AM 61.0 °F 59.0 °F 93% 30.14 in 10.0 mi NNE 4.6 mph - N/A   Clear
2:56 AM 61.0 °F 57.0 °F 87% 30.11 in 10.0 mi NE 8.1 mph - N/A   Clear
3:56 AM 60.1 °F 55.9 °F 86% 30.05 in 10.0 mi NE 10.4 mph - N/A   Clear
4:56 AM 60.1 °F 54.0 °F 80% 30.12 in 10.0 mi ENE 3.5 mph - N/A   Clear
5:56 AM 60.1 °F 55.0 °F 83% 30.16 in 10.0 mi North 3.5 mph - N/A   Partly Cloudy
6:56 AM 59.0 °F 57.0 °F 93% 30.17 in 10.0 mi Calm Calm - N/A   Partly Cloudy
7:56 AM 59.0 °F 55.9 °F 90% 30.15 in 10.0 mi NNE 4.6 mph - N/A   Overcast
8:56 AM 60.1 °F 57.9 °F 93% 30.20 in 10.0 mi West 3.5 mph - N/A   Scattered Clouds
9:56 AM 63.0 °F 57.9 °F 84% 30.14 in 10.0 mi NE 4.6 mph - N/A   Clear
10:56 AM 66.9 °F 57.9 °F 73% 30.14 in 10.0 mi Variable 5.8 mph - N/A   Clear
11:56 AM 68.0 °F 54.0 °F 61% 30.16 in 10.0 mi NNE 4.6 mph - N/A   Clear
12:56 PM 71.1 °F 54.0 °F 55% 30.17 in 10.0 mi North 4.6 mph - N/A   Clear
1:56 PM 73.0 °F 54.0 °F 51% 30.17 in 10.0 mi NW 4.6 mph - N/A   Clear
2:56 PM 73.0 °F 55.0 °F 53% 30.16 in 10.0 mi WSW 4.6 mph - N/A   Clear
3:56 PM 73.0 °F 55.9 °F 55% 30.13 in 10.0 mi West 3.5 mph - N/A   Clear
4:56 PM 73.9 °F 55.9 °F 53% 30.12 in 10.0 mi Calm Calm - N/A   Partly Cloudy
5:56 PM 73.9 °F 55.9 °F 53% 30.11 in 10.0 mi NNW 6.9 mph - N/A   Clear
6:56 PM 73.0 °F 57.0 °F 57% 30.09 in 10.0 mi NW 5.8 mph - N/A   Clear
7:04 PM 73.4 °F 57.2 °F 57% 30.07 in 10.0 mi NW 4.6 mph - N/A   Partly Cloudy
7:56 PM 69.1 °F 57.0 °F 65% 30.09 in 10.0 mi NNE 6.9 mph - N/A   Clear
8:56 PM 66.9 °F 55.0 °F 66% 30.10 in 10.0 mi NNE 6.9 mph - N/A   Clear
9:56 PM 66.0 °F 57.0 °F 73% 30.12 in 10.0 mi East 8.1 mph - N/A   Clear
10:56 PM 64.0 °F 55.0 °F 73% 30.12 in 10.0 mi East 6.9 mph - N/A   Clear
11:56 PM 61.0 °F 55.0 °F 81% 30.14 in 10.0 mi Calm Calm - N/A   Clear